Weather History for Pine River, MN

Change the Weather History Date:

Monday, July 1, 2013

  Actual Average Record
Temperature  
Mean Temperature 68 °F -  
Max Temperature 82 °F 74 °F 91 °F (2000)
Min Temperature 53 °F 54 °F 44 °F (2001)
Cooling Degree Days 2    
Growing Degree Days 18 (Base 50)    
Moisture  
Dew Point 53 °F    
Average Humidity 64    
Maximum Humidity 100    
Minimum Humidity 30    
Precipitation  
Precipitation 0.00 in - - ()
Sea Level Pressure  
Sea Level Pressure 30.23 in    
Wind  
Wind Speed 2 mph (NNE)    
Max Wind Speed 12 mph    
Max Gust Speed 9 mph    
Visibility 10 miles    
Events      
Averages and records for this station are not official NWS values.
T = Trace of Precipitation, MM = Missing Value Source: NWS Daily Summary

Daily Weather History Graph

Daily Weather History Graph

Search for Another Location

Airport:

Trip Planner

Search our weather history database for the weather conditions in past years. The results will help you decide how hot, cold, wet, or windy it might be!

Date:

Astronomy

Jul. 01, 2013 Rise Set
Actual Time 5:27 AM CDT 9:14 PM CDT
Civil Twilight 4:48 AM CDT 9:53 PM CDT
Nautical Twilight 3:55 AM CDT 10:46 PM CDT
Astronomical Twilight 2:39 AM CDT 12:02 AM CDT
Moon 1:12 AM CDT (7/1) 3:18 PM CDT (7/1)
Length of Visible Light 17h 05m
Length of Day
15h 47m
Waning Crescent, 35% of the Moon is Illuminated
Jul 1
Waning Crescent
Jul 8
New
Jul 15
First Quarter
Jul 22
Full
Jul 29
Last Quarter

Hourly Weather History & Observations

Time (CDT) Temp. Dew Point Humidity Pressure Visibility Wind Dir Wind Speed Gust Speed Precip Events Conditions
12:12 AM 57.2 °F 55.4 °F 94% 30.20 in 10.0 mi Calm Calm - N/A   Clear
12:33 AM 57.2 °F 55.4 °F 94% 30.20 in 10.0 mi Calm Calm - N/A   Clear
12:53 AM 57.2 °F 55.4 °F 94% 30.20 in 10.0 mi Calm Calm - N/A   Clear
1:12 AM 59.0 °F 55.4 °F 88% 30.21 in 10.0 mi Calm Calm - N/A   Clear
1:33 AM 57.2 °F 55.4 °F 94% 30.21 in 10.0 mi Calm Calm - N/A   Clear
1:53 AM 57.2 °F 55.4 °F 94% 30.21 in 10.0 mi Calm Calm - N/A   Clear
2:12 AM 57.2 °F 55.4 °F 94% 30.21 in 10.0 mi Calm Calm - N/A   Clear
2:33 AM 57.2 °F 55.4 °F 94% 30.21 in 10.0 mi Calm Calm - N/A   Clear
2:53 AM 57.2 °F 55.4 °F 94% 30.21 in 10.0 mi Calm Calm - N/A   Clear
3:12 AM 55.4 °F 53.6 °F 94% 30.22 in 10.0 mi Calm Calm - N/A   Clear
3:33 AM 55.4 °F 53.6 °F 94% 30.22 in 10.0 mi Calm Calm - N/A   Clear
3:52 AM 55.4 °F 53.6 °F 94% 30.22 in 7.0 mi Calm Calm - N/A   Clear
4:13 AM 55.4 °F 53.6 °F 94% 30.22 in 10.0 mi Calm Calm - N/A   Clear
4:33 AM 53.6 °F 53.6 °F 100% 30.23 in 10.0 mi Calm Calm - N/A   Clear
4:52 AM 55.4 °F 53.6 °F 94% 30.23 in 10.0 mi Calm Calm - N/A   Clear
5:13 AM 53.6 °F 53.6 °F 100% 30.23 in 7.0 mi Calm Calm - N/A   Clear
5:33 AM 53.6 °F 53.6 °F 100% 30.24 in 10.0 mi Calm Calm - N/A   Clear
5:52 AM 53.6 °F 53.6 °F 100% 30.24 in 10.0 mi Calm Calm - N/A   Clear
6:13 AM 53.6 °F 53.6 °F 100% 30.24 in 10.0 mi Calm Calm - N/A   Clear
6:33 AM 55.4 °F 53.6 °F 94% 30.24 in 7.0 mi Calm Calm - N/A   Clear
6:53 AM 57.2 °F 55.4 °F 94% 30.25 in 10.0 mi Calm Calm - N/A   Clear
7:13 AM 59.0 °F 57.2 °F 94% 30.25 in 10.0 mi Calm Calm - N/A   Clear
7:33 AM 62.6 °F 57.2 °F 82% 30.25 in 10.0 mi NNW 3.5 mph - N/A   Clear
7:53 AM 64.4 °F 57.2 °F 77% 30.25 in 10.0 mi NNW 4.6 mph - N/A   Clear
8:13 AM 64.4 °F 59.0 °F 83% 30.26 in 10.0 mi Calm Calm - N/A   Clear
8:32 AM 66.2 °F 59.0 °F 78% 30.26 in 10.0 mi North 3.5 mph - N/A   Clear
8:53 AM 69.8 °F 57.2 °F 64% 30.26 in 10.0 mi North 3.5 mph - N/A   Clear
9:13 AM 69.8 °F 59.0 °F 68% 30.26 in 10.0 mi North 3.5 mph - N/A   Clear
9:33 AM 71.6 °F 57.2 °F 60% 30.26 in 10.0 mi North 3.5 mph - N/A   Clear
9:53 AM 73.4 °F 59.0 °F 61% 30.26 in 10.0 mi East 3.5 mph - N/A   Clear
10:13 AM 73.4 °F 57.2 °F 57% 30.26 in 10.0 mi Calm Calm - N/A   Clear
10:33 AM 75.2 °F 59.0 °F 57% 30.26 in 10.0 mi Calm Calm - N/A   Clear
10:53 AM 75.2 °F 57.2 °F 53% 30.26 in 10.0 mi NNW 3.5 mph - N/A   Clear
11:13 AM 75.2 °F 57.2 °F 53% 30.26 in 10.0 mi NNW 3.5 mph - N/A   Clear
11:33 AM 77.0 °F 57.2 °F 50% 30.26 in 10.0 mi Calm Calm - N/A   Clear
11:52 AM 78.8 °F 57.2 °F 47% 30.25 in 10.0 mi North 4.6 mph - N/A   Clear
12:13 PM 78.8 °F 51.8 °F 39% 30.25 in 10.0 mi North 8.1 mph - N/A   Clear
12:33 PM 80.6 °F 50.0 °F 34% 30.25 in 10.0 mi North 6.9 mph - N/A   Clear
12:53 PM 80.6 °F 46.4 °F 30% 30.25 in 10.0 mi NNE 6.9 mph - N/A   Clear
1:13 PM 80.6 °F 46.4 °F 30% 30.25 in 10.0 mi NNE 8.1 mph - N/A   Clear
1:33 PM 80.6 °F 46.4 °F 30% 30.25 in 10.0 mi North 6.9 mph - N/A   Scattered Clouds
1:53 PM 80.6 °F 46.4 °F 30% 30.24 in 10.0 mi ENE 4.6 mph 9.2 mph N/A   Clear
2:13 PM 80.6 °F 46.4 °F 30% 30.24 in 10.0 mi North 4.6 mph - N/A   Clear
2:33 PM 80.6 °F 46.4 °F 30% 30.24 in 10.0 mi NNE 8.1 mph - N/A   Scattered Clouds
2:53 PM 80.6 °F 46.4 °F 30% 30.23 in 10.0 mi NNW 8.1 mph - N/A   Scattered Clouds
3:13 PM 82.4 °F 48.2 °F 30% 30.23 in 10.0 mi NNE 8.1 mph - N/A   Scattered Clouds
3:32 PM 80.6 °F 48.2 °F 32% 30.23 in 10.0 mi NNE 6.9 mph - N/A   Scattered Clouds
3:53 PM 80.6 °F 46.4 °F 30% 30.23 in 10.0 mi North 11.5 mph - N/A   Clear
4:13 PM 80.6 °F 46.4 °F 30% 30.23 in 10.0 mi NNE 9.2 mph - N/A   Scattered Clouds
4:33 PM 80.6 °F 46.4 °F 30% 30.22 in 10.0 mi North 8.1 mph - N/A   Scattered Clouds
4:53 PM 80.6 °F 46.4 °F 30% 30.22 in 10.0 mi North 8.1 mph - N/A   Clear
5:13 PM 80.6 °F 46.4 °F 30% 30.22 in 10.0 mi NNW 5.8 mph - N/A   Clear
5:33 PM 80.6 °F 46.4 °F 30% 30.21 in 10.0 mi North 6.9 mph - N/A   Clear
5:53 PM 80.6 °F 48.2 °F 32% 30.21 in 10.0 mi NE 5.8 mph - N/A   Clear
6:13 PM 80.6 °F 48.2 °F 32% 30.21 in 10.0 mi NE 5.8 mph - N/A   Clear
6:33 PM 80.6 °F 48.2 °F 32% 30.21 in 10.0 mi NE 3.5 mph - N/A   Clear
6:53 PM 80.6 °F 48.2 °F 32% 30.21 in 10.0 mi NNE 4.6 mph - N/A   Clear
7:13 PM 80.6 °F 48.2 °F 32% 30.21 in 10.0 mi North 3.5 mph - N/A   Clear
7:33 PM 78.8 °F 50.0 °F 36% 30.20 in 10.0 mi North 3.5 mph - N/A   Clear
7:53 PM 78.8 °F 53.6 °F 42% 30.21 in 10.0 mi Calm Calm - N/A   Clear
8:13 PM 75.2 °F 55.4 °F 50% 30.20 in 10.0 mi Calm Calm - N/A   Clear
8:33 PM 73.4 °F 57.2 °F 57% 30.20 in 10.0 mi Calm Calm - N/A   Clear
8:52 PM 73.4 °F 55.4 °F 53% 30.21 in 10.0 mi SE 3.5 mph - N/A   Clear
9:13 PM 69.8 °F 57.2 °F 64% 30.21 in 10.0 mi SE 4.6 mph - N/A   Clear
9:33 PM 69.8 °F 57.2 °F 64% 30.21 in 10.0 mi Calm Calm - N/A   Clear
9:52 PM 66.2 °F 57.2 °F 73% 30.21 in 10.0 mi Calm Calm - N/A   Clear
10:13 PM 64.4 °F 55.4 °F 73% 30.22 in 10.0 mi Calm Calm - N/A   Clear
10:33 PM 64.4 °F 57.2 °F 77% 30.22 in 10.0 mi Calm Calm - N/A   Clear
10:53 PM 62.6 °F 55.4 °F 77% 30.22 in 10.0 mi Calm Calm - N/A   Clear
11:12 PM 62.6 °F 57.2 °F 82% 30.22 in 10.0 mi Calm Calm - N/A   Clear
11:33 PM 62.6 °F 55.4 °F 77% 30.21 in 10.0 mi Calm Calm - N/A   Clear
11:53 PM 62.6 °F 57.2 °F 82% 30.22 in 10.0 mi Calm Calm - N/A   Clear